DW4657 Weather Reports


Display with metric or nautical units.
time (UTC)temp
F
wind
direction
speed
MPH
gust
MPH
rain 1hr
in
rain 24hr
in
rain mn
in
humidity
%
barometer
mb
20260506173522 65 195 8.0 17.0 0.00 0.00 0.00 74 1009.4
20260506173103 65 212 7.0 19.0 0.00 0.00 0.00 74 1009.4
20260506172518 65 141 9.0 25.0 0.00 0.00 0.00 74 1009.2
20260506172053 65 156 8.0 25.0 0.00 0.00 0.00 74 1009.3
20260506171542 66 311 6.0 21.0 0.00 0.00 0.00 74 1009.4
20260506171020 66 253 7.0 18.0 0.00 0.00 0.00 73 1009.2
20260506170518 66 105 8.0 18.0 0.00 0.00 0.00 73 1009.2
20260506170051 65 207 7.0 20.0 0.00 0.00 0.00 74 1009.4
20260506165519 65 174 9.0 20.0 0.00 0.00 0.00 74 1009.4
20260506165021 65 153 6.0 18.0 0.00 0.00 0.00 74 1009.6
20260506164535 65 220 7.0 18.0 0.00 0.00 0.00 73 1009.7
20260506164018 65 204 7.0 20.0 0.00 0.00 0.00 73 1009.6
20260506163519 65 142 8.0 20.0 0.00 0.00 0.00 74 1009.7
20260506163050 65 185 5.0 20.0 0.00 0.00 0.00 74 1009.7
20260506162518 65 181 10.0 25.0 0.00 0.00 0.00 74 1009.8
20260506162022 65 231 7.0 25.0 0.00 0.00 0.00 74 1009.9
20260506161540 65 184 9.0 19.0 0.00 0.00 0.00 74 1009.9
20260506161020 65 152 5.0 18.0 0.00 0.00 0.00 74 1010.0
20260506160522 65 192 8.0 17.0 0.00 0.00 0.00 73 1010.1
20260506160042 65 188 7.0 17.0 0.00 0.00 0.00 73 1010.2
20260506155518 65 195 6.0 17.0 0.00 0.00 0.00 73 1010.3
20260506155018 66 222 7.0 18.0 0.00 0.00 0.00 73 1010.3
20260506154547 66 114 8.0 18.0 0.00 0.00 0.00 73 1010.4
20260506154018 66 212 7.0 20.0 0.00 0.00 0.00 73 1010.4
20260506153518 65 226 9.0 20.0 0.00 0.00 0.00 73 1010.6
20260506153038 65 204 9.0 16.0 0.00 0.00 0.00 73 1010.6
20260506152518 65 224 8.0 16.0 0.00 0.00 0.00 74 1010.8
20260506152019 65 145 4.0 19.0 0.00 0.00 0.00 75 1010.7
20260506151539 64 185 10.0 19.0 0.00 0.00 0.00 75 1010.8
20260506151017 65 209 6.0 14.0 0.00 0.00 0.00 75 1010.7
20260506150518 65 160 7.0 15.0 0.00 0.00 0.00 74 1010.6
20260506150039 65 200 3.0 15.0 0.00 0.00 0.00 75 1010.7
20260506145520 64 252 7.0 17.0 0.00 0.00 0.00 74 1010.7
20260506145018 64 206 7.0 17.0 0.00 0.00 0.00 74 1010.5
20260506144544 65 213 6.0 16.0 0.00 0.00 0.00 74 1010.5
20260506144020 65 96 5.0 17.0 0.00 0.00 0.00 75 1010.3
20260506143519 64 171 6.0 17.0 0.00 0.00 0.00 75 1010.4
20260506143037 64 173 5.0 21.0 0.00 0.00 0.00 75 1010.5
20260506142518 64 229 7.0 21.0 0.00 0.00 0.00 74 1010.4
20260506142018 65 155 5.0 11.0 0.00 0.00 0.00 74 1010.5
20260506141534 65 253 5.0 14.0 0.00 0.00 0.00 75 1010.3
20260506141018 64 193 5.0 16.0 0.00 0.00 0.00 75 1010.3
20260506140519 64 87 6.0 16.0 0.00 0.00 0.00 75 1010.3
20260506140039 65 167 6.0 13.0 0.00 0.00 0.00 75 1010.3
20260506135519 64 20 5.0 13.0 0.00 0.00 0.00 76 1010.4
20260506135020 64 163 6.0 13.0 0.00 0.00 0.00 76 1010.6
20260506134538 63 203 6.0 17.0 0.00 0.00 0.00 77 1010.7
20260506134022 63 185 5.0 17.0 0.00 0.00 0.00 77 1011.0
20260506133520 63 181 5.0 14.0 0.00 0.00 0.00 78 1011.0
20260506133052 62 201 5.0 16.0 0.00 0.00 0.00 78 1011.1
20260506132518 62 160 7.0 16.0 0.00 0.00 0.00 78 1011.1
20260506132021 62 212 5.0 14.0 0.00 0.00 0.00 79 1011.1
20260506131538 61 53 4.0 14.0 0.00 0.00 0.00 80 1011.1
20260506131019 61 224 5.0 14.0 0.00 0.00 0.00 80 1011.1
20260506130518 61 234 6.0 14.0 0.00 0.00 0.00 80 1011.1
20260506130039 61 110 4.0 13.0 0.00 0.00 0.00 81 1011.2
20260506125518 60 188 5.0 13.0 0.00 0.00 0.00 82 1011.3
20260506125019 60 224 6.0 13.0 0.00 0.00 0.00 82 1011.0
20260506124536 60 188 5.0 17.0 0.00 0.00 0.00 82 1011.1
20260506124018 60 219 6.0 17.0 0.00 0.00 0.00 83 1011.1
20260506123518 59 205 7.0 15.0 0.00 0.00 0.00 83 1011.2
20260506123036 59 203 7.0 13.0 0.00 0.00 0.00 82 1011.0
20260506122518 59 75 6.0 13.0 0.00 0.00 0.00 83 1010.9
20260506122021 59 235 3.0 10.0 0.00 0.00 0.00 84 1011.2
20260506121539 58 166 5.0 12.0 0.00 0.00 0.00 84 1011.3
20260506121019 58 162 3.0 12.0 0.00 0.00 0.00 85 1011.3
20260506120519 58 247 5.0 14.0 0.00 0.00 0.00 85 1011.6
20260506120038 58 129 6.0 14.0 0.00 0.00 0.00 84 1011.6
20260506115517 58 207 5.0 10.0 0.00 0.00 0.00 85 1011.5
20260506115017 58 142 3.0 14.0 0.00 0.00 0.00 85 1011.5
20260506114539 58 51 4.0 14.0 0.00 0.00 0.00 85 1011.6
20260506114018 58 248 3.0 14.0 0.00 0.00 0.00 86 1011.7
20260506113520 58 68 5.0 14.0 0.00 0.00 0.00 86 1011.7
20260506113034 57 241 6.0 12.0 0.00 0.00 0.00 86 1011.7
20260506112517 57 174 4.0 10.0 0.00 0.00 0.00 87 1011.7
20260506112019 57 252 4.0 14.0 0.00 0.00 0.00 86 1011.7
20260506111538 57 200 4.0 14.0 0.00 0.00 0.00 87 1011.6
20260506111018 57 196 5.0 10.0 0.00 0.00 0.00 87 1011.6
20260506110519 57 243 3.0 15.0 0.00 0.00 0.00 87 1011.5
20260506110043 57 227 5.0 15.0 0.00 0.00 0.00 87 1011.6
20260506105519 57 168 5.0 11.0 0.00 0.00 0.00 87 1011.7
20260506105020 57 148 4.0 11.0 0.00 0.00 0.00 87 1011.7
20260506104604 57 180 4.0 10.0 0.00 0.00 0.00 88 1011.7
20260506104020 57 299 4.0 9.0 0.00 0.00 0.00 88 1011.6
20260506103518 57 101 3.0 9.0 0.00 0.00 0.00 88 1011.6
20260506103041 57 85 4.0 12.0 0.00 0.00 0.00 88 1011.6
20260506102519 56 29 4.0 12.0 0.00 0.00 0.00 88 1011.6
20260506102018 57 166 3.0 9.0 0.00 0.00 0.00 88 1011.5
20260506101536 56 172 3.0 9.0 0.00 0.00 0.00 88 1011.4
20260506101020 56 155 4.0 10.0 0.00 0.00 0.00 89 1011.5
20260506100524 56 212 3.0 10.0 0.00 0.00 0.00 89 1011.4
20260506100040 56 184 5.0 13.0 0.00 0.00 0.00 89 1011.3
20260506095518 56 217 5.0 13.0 0.00 0.00 0.00 89 1011.2
20260506095018 56 136 3.0 11.0 0.00 0.00 0.00 89 1011.4
20260506094539 56 155 2.0 9.0 0.00 0.00 0.00 88 1011.3
20260506094020 56 195 4.0 11.0 0.00 0.00 0.00 88 1011.3
20260506093520 56 176 3.0 13.0 0.00 0.00 0.00 88 1011.3
20260506093037 56 221 4.0 13.0 0.00 0.00 0.00 88 1011.2
20260506092520 56 188 5.0 9.0 0.00 0.00 0.00 88 1011.3
20260506092020 56 171 5.0 10.0 0.00 0.00 0.00 88 1011.2
20260506091538 56 25 4.0 11.0 0.00 0.00 0.00 88 1011.3
20260506091021 56 200 3.0 12.0 0.00 0.00 0.00 88 1011.1
20260506090522 56 173 5.0 12.0 0.00 0.00 0.00 88 1011.2
20260506090044 56 183 4.0 12.0 0.00 0.00 0.00 87 1011.2
20260506085518 56 259 5.0 12.0 0.00 0.00 0.00 87 1011.3
20260506085023 56 176 4.0 12.0 0.00 0.00 0.00 87 1011.5
20260506084537 56 172 4.0 16.0 0.00 0.00 0.00 87 1011.4
20260506084022 56 207 5.0 16.0 0.00 0.00 0.00 87 1011.4
20260506083518 56 201 5.0 11.0 0.00 0.00 0.00 87 1011.5
20260506083044 56 239 2.0 9.0 0.00 0.00 0.00 87 1011.5
20260506082517 56 271 3.0 11.0 0.00 0.00 0.00 87 1011.4
20260506082020 56 163 5.0 11.0 0.00 0.00 0.00 87 1011.5
20260506081537 56 236 4.0 11.0 0.00 0.00 0.00 87 1011.5
20260506081025 56 212 4.0 12.0 0.00 0.00 0.00 87 1011.5
20260506080521 56 236 5.0 12.0 0.00 0.00 0.00 86 1011.5
20260506073524 57 145 5.0 10.0 0.00 0.00 0.00 86 1011.4
20260506073038 56 156 3.0 9.0 0.00 0.00 0.00 86 1011.3
20260506072521 57 219 4.0 11.0 0.00 0.00 0.00 85 1011.4
20260506072018 57 224 3.0 12.0 0.00 0.00 0.00 85 1011.3
20260506071536 57 266 5.0 12.0 0.00 0.00 0.00 85 1011.3
20260506071019 57 195 4.0 11.0 0.00 0.00 0.00 85 1011.3
20260506070519 57 221 4.0 11.0 0.00 0.00 0.00 85 1011.2
20260506062020 57 198 5.0 12.0 0.00 0.00 0.00 83 1010.9
20260506061537 58 184 5.0 13.0 0.00 0.00 0.00 83 1011.0
20260506061020 58 205 5.0 13.0 0.00 0.00 0.00 83 1011.0
20260506060518 58 196 3.0 17.0 0.00 0.00 0.00 83 1011.0
20260506051017 57 170 4.0 13.0 0.00 0.00 0.00 82 1011.4
20260506050520 57 211 6.0 13.0 0.00 0.00 0.00 82 1011.3
20260506045020 57 145 6.0 15.0 0.00 0.00 0.00 82 1011.6
20260506044539 57 146 5.0 16.0 0.00 0.00 0.00 82 1011.7
20260506044020 57 176 5.0 16.0 0.00 0.00 0.00 81 1011.7
20260506043520 57 255 5.0 12.0 0.00 0.00 0.00 81 1011.6
20260506043047 57 262 6.0 12.0 0.00 0.00 0.00 81 1011.6
20260506042520 57 193 5.0 13.0 0.00 0.00 0.00 81 1011.5
20260506042019 57 259 5.0 17.0 0.00 0.00 0.00 81 1011.6
20260506041538 57 139 6.0 17.0 0.00 0.00 0.00 80 1011.6
20260506041017 57 230 4.0 15.0 0.00 0.00 0.00 80 1011.6
20260506040519 57 259 5.0 15.0 0.00 0.00 0.00 80 1011.5
20260506040045 57 203 5.0 14.0 0.00 0.00 0.00 79 1011.5
20260506035518 58 195 5.0 14.0 0.00 0.00 0.00 79 1011.5
20260506035023 58 180 4.0 13.0 0.00 0.00 0.00 79 1011.6
20260506034538 58 184 3.0 11.0 0.00 0.00 0.00 78 1011.6
20260506034017 58 214 5.0 11.0 0.00 0.00 0.00 78 1011.5
20260506033517 58 208 6.0 11.0 0.00 0.00 0.00 78 1011.6
20260506033038 58 229 6.0 14.0 0.00 0.00 0.00 78 1011.5
20260506032517 58 186 5.0 14.0 0.00 0.00 0.00 77 1011.4
20260506032020 58 190 6.0 13.0 0.00 0.00 0.00 77 1011.5
20260506031539 58 215 5.0 13.0 0.00 0.00 0.00 77 1011.5
20260506031020 58 283 5.0 11.0 0.00 0.00 0.00 77 1011.4
20260506030520 58 188 3.0 10.0 0.00 0.00 0.00 77 1011.5
20260506030037 58 229 5.0 10.0 0.00 0.00 0.00 77 1011.5
20260506025518 57 218 3.0 10.0 0.00 0.00 0.00 77 1011.4
20260506025018 58 204 5.0 13.0 0.00 0.00 0.00 77 1011.5
20260506024544 58 280 6.0 13.0 0.00 0.00 0.00 77 1011.6
20260506024018 58 211 5.0 13.0 0.00 0.00 0.00 77 1011.5
20260506023520 58 131 6.0 13.0 0.00 0.00 0.00 77 1011.5
20260506023034 58 242 6.0 12.0 0.00 0.00 0.00 77 1011.5
20260506022518 58 222 4.0 12.0 0.00 0.00 0.00 77 1011.4
20260506022020 58 122 5.0 13.0 0.00 0.00 0.00 76 1011.5
20260506021551 58 142 5.0 13.0 0.00 0.00 0.00 76 1011.4
20260506021020 58 162 6.0 12.0 0.00 0.00 0.00 76 1011.5
20260506020521 58 181 3.0 11.0 0.00 0.00 0.00 76 1011.6
20260506020039 58 108 5.0 11.0 0.00 0.00 0.00 76 1011.6
20260506015519 58 165 5.0 11.0 0.00 0.00 0.00 76 1011.6
20260506015018 58 159 4.0 10.0 0.00 0.00 0.00 76 1011.5
20260506014537 58 181 4.0 11.0 0.00 0.00 0.00 76 1011.5
20260506014017 58 219 4.0 11.0 0.00 0.00 0.00 76 1011.4
20260506013518 58 99 3.0 10.0 0.00 0.00 0.00 76 1011.3
20260506013038 58 153 4.0 10.0 0.00 0.00 0.00 76 1011.2
20260506012518 58 143 5.0 11.0 0.00 0.00 0.00 76 1011.2
20260506012017 58 185 4.0 11.0 0.00 0.00 0.00 76 1011.1
20260506011538 58 164 5.0 11.0 0.00 0.00 0.00 76 1011.1
20260506011018 58 206 4.0 12.0 0.00 0.00 0.00 76 1011.2
20260506010522 58 192 4.0 12.0 0.00 0.00 0.00 76 1011.1
20260506010047 58 242 4.0 13.0 0.00 0.00 0.00 76 1011.0
20260506005517 58 203 5.0 13.0 0.00 0.00 0.00 76 1010.9
20260506005024 58 158 5.0 13.0 0.00 0.00 0.00 76 1010.9
20260506004537 58 217 4.0 12.0 0.00 0.00 0.00 77 1010.9
20260506004021 58 176 4.0 14.0 0.00 0.00 0.00 76 1010.8
20260506003521 58 217 6.0 14.0 0.00 0.00 0.00 76 1010.8
20260506003038 58 186 4.0 13.0 0.00 0.00 0.00 76 1010.6
20260506002524 58 195 5.0 13.0 0.00 0.00 0.00 76 1010.4
20260506002017 58 96 4.0 12.0 0.00 0.00 0.00 76 1010.3
20260506001537 58 188 5.0 13.0 0.00 0.00 0.00 76 1010.2
20260506001023 58 98 4.0 13.0 0.00 0.00 0.00 76 1010.1
20260506000521 58 195 3.0 13.0 0.00 0.00 0.00 76 1010.0
20260506000039 58 232 5.0 11.0 0.00 0.00 0.00 76 1009.9
20260505235521 59 199 2.0 9.0 0.00 0.00 0.00 75 1009.9
20260505235021 59 193 3.0 8.0 0.00 0.00 0.00 75 1010.1
20260505234600 59 189 4.0 12.0 0.00 0.00 0.00 75 1010.1
20260505234020 59 202 5.0 12.0 0.00 0.00 0.00 75 1010.1
20260505233520 59 170 4.0 11.0 0.00 0.00 0.00 74 1009.9
20260505233035 59 233 5.0 14.0 0.00 0.00 0.00 74 1009.8
20260505232518 59 273 7.0 14.0 0.00 0.00 0.00 74 1009.8
20260505232018 60 195 6.0 16.0 0.00 0.00 0.00 74 1009.7
20260505231534 60 219 6.0 16.0 0.00 0.00 0.00 73 1009.6
20260505231017 60 211 5.0 16.0 0.00 0.00 0.00 73 1009.2
20260505230521 60 83 5.0 20.0 0.00 0.00 0.00 73 1009.1
20260505230041 60 150 8.0 20.0 0.00 0.00 0.00 73 1009.2
20260505225522 61 181 7.0 18.0 0.00 0.00 0.00 72 1009.0
20260505225018 61 117 8.0 18.0 0.00 0.00 0.00 72 1009.1
20260505224538 61 172 4.0 13.0 0.00 0.00 0.00 72 1009.3
20260505224024 62 252 6.0 14.0 0.00 0.00 0.00 71 1009.3
20260505223520 62 205 5.0 14.0 0.00 0.00 0.00 71 1009.2
20260505223037 62 233 7.0 16.0 0.00 0.00 0.00 70 1009.3
20260505222520 63 188 6.0 18.0 0.00 0.00 0.00 69 1009.3
20260505222024 63 200 7.0 18.0 0.00 0.00 0.00 69 1009.3
20260505221532 64 206 4.0 14.0 0.00 0.00 0.00 68 1009.2
20260505221018 64 205 6.0 14.0 0.00 0.00 0.00 67 1009.1
20260505220517 65 290 5.0 13.0 0.00 0.00 0.00 66 1009.0
20260505220042 65 164 5.0 14.0 0.00 0.00 0.00 66 1008.9
20260505215518 65 228 6.0 21.0 0.00 0.00 0.00 66 1008.9
20260505215021 65 159 10.0 21.0 0.00 0.00 0.00 65 1009.0
20260505214551 65 139 7.0 16.0 0.00 0.00 0.00 65 1008.8
20260505214021 66 217 5.0 14.0 0.00 0.00 0.00 65 1008.8
20260505213522 66 226 7.0 18.0 0.00 0.00 0.00 65 1008.8
20260505213037 66 216 7.0 21.0 0.00 0.00 0.00 65 1008.9
20260505212522 66 221 8.0 21.0 0.00 0.00 0.00 64 1008.9
20260505212021 66 178 6.0 21.0 0.00 0.00 0.00 64 1008.8
20260505211541 66 222 7.0 21.0 0.00 0.00 0.00 63 1008.9
20260505211018 67 225 8.0 19.0 0.00 0.00 0.00 62 1008.9
20260505210520 68 195 8.0 15.0 0.00 0.00 0.00 63 1008.8
20260505210039 68 215 7.0 13.0 0.00 0.00 0.00 62 1008.7
20260505205518 68 124 6.0 16.0 0.00 0.00 0.00 63 1008.6
20260505205020 67 203 6.0 17.0 0.00 0.00 0.00 64 1008.7
20260505204538 67 155 9.0 17.0 0.00 0.00 0.00 64 1008.8
20260505204020 67 201 7.0 23.0 0.00 0.00 0.00 64 1009.0
20260505203521 67 208 7.0 23.0 0.00 0.00 0.00 64 1008.9
20260505203050 67 168 8.0 22.0 0.00 0.00 0.00 63 1008.9
20260505202520 68 209 6.0 17.0 0.00 0.00 0.00 63 1008.9
20260505202023 68 238 9.0 17.0 0.00 0.00 0.00 61 1009.1
20260505201537 69 214 6.0 16.0 0.00 0.00 0.00 62 1008.9
20260505201020 68 135 7.0 20.0 0.00 0.00 0.00 62 1008.8
20260505200522 68 179 9.0 20.0 0.00 0.00 0.00 61 1008.8
20260505200038 68 180 10.0 20.0 0.00 0.00 0.00 60 1008.7
20260505195522 69 188 8.0 20.0 0.00 0.00 0.00 60 1008.9
20260505195020 69 173 8.0 21.0 0.00 0.00 0.00 59 1008.9
20260505194534 70 142 8.0 21.0 0.00 0.00 0.00 58 1008.9
20260505194021 71 197 7.0 18.0 0.00 0.00 0.00 57 1008.9
20260505193521 71 234 7.0 18.0 0.00 0.00 0.00 57 1008.8
20260505193031 72 187 8.0 16.0 0.00 0.00 0.00 56 1008.8
20260505192523 72 210 5.0 18.0 0.00 0.00 0.00 57 1008.6
20260505192020 72 193 6.0 18.0 0.00 0.00 0.00 56 1008.6
20260505191544 72 123 10.0 18.0 0.00 0.00 0.00 55 1008.7
20260505191021 73 188 5.0 19.0 0.00 0.00 0.00 56 1008.8
20260505190520 72 147 9.0 19.0 0.00 0.00 0.00 56 1008.6
20260505190041 73 55 7.0 19.0 0.00 0.00 0.00 56 1008.7
20260505185520 73 231 5.0 21.0 0.00 0.00 0.00 57 1008.7
20260505185020 73 224 5.0 21.0 0.00 0.00 0.00 56 1008.7
20260505184546 73 264 8.0 22.0 0.00 0.00 0.00 55 1008.8
20260505184021 73 207 9.0 22.0 0.00 0.00 0.00 55 1008.8
20260505183520 73 139 9.0 18.0 0.00 0.00 0.00 55 1008.8
20260505183041 73 177 7.0 14.0 0.00 0.00 0.00 55 1009.0
20260505182521 73 192 7.0 14.0 0.00 0.00 0.00 54 1008.9
20260505182021 73 140 6.0 14.0 0.00 0.00 0.00 54 1008.9
20260505181535 73 215 6.0 14.0 0.00 0.00 0.00 56 1008.9
20260505181021 73 157 7.0 17.0 0.00 0.00 0.00 56 1009.1
20260505180522 73 257 7.0 17.0 0.00 0.00 0.00 55 1009.1
20260505180033 72 151 6.0 16.0 0.00 0.00 0.00 57 1009.2
20260505175520 72 79 8.0 16.0 0.00 0.00 0.00 56 1009.3
20260505175022 72 101 6.0 20.0 0.00 0.00 0.00 56 1009.6
20260505174538 72 218 10.0 20.0 0.00 0.00 0.00 56 1009.6
20260505174020 72 196 7.0 13.0 0.00 0.00 0.00 56 1009.7